Lexington Weather

Lexington, Massachusetts, USA

36°F
1/28/2020 6:14am 
  • Lexington Conditions: Overcast
  • Temperature: 36.1°F / 2.3°C 
  • Dew Point: 29.7°F 
  • Relative Humidity: 77
  • Wind: Wind from WNW WNW 1 mph, 10-min avg: 1 mph, gust: 4 mph
  • Barometer: 29.65 in Steady
  • Visibility: 10 miles
  • Rain Today: 0.00 in
  •   

Regional Weather Roundup
for Boston / Norton, MA

        
000
ASUS41 KBOX 251200
RWRBOX

REGIONAL WEATHER ROUNDUP
NATIONAL WEATHER SERVICE BOSTON/NORTON MA
700 AM EST SAT JAN 25 2020

NOTE:  "FAIR" INDICATES FEW OR NO CLOUDS BELOW 12,000 FEET WITH NO 
SIGNIFICANT WEATHER AND/OR OBSTRUCTIONS TO VISIBILITY.

MAZALL-251300-
EASTERN MASSACHUSETTS
  
CITY           SKY/WX    TMP DP  RH WIND       PRES   REMARKS
BOSTON         CLOUDY    42  34  73 E13       30.30S                  
6HR MIN TEMP:  40; 6HR MAX TEMP:  42;                                

BEVERLY        CLOUDY    38  32  79 E6        30.30S                  
LAWRENCE       MOCLDY    34  31  88 NE5       30.32S WCI  30          
BEDFORD        CLOUDY    34  30  85 CALM      30.29S                  
BLUE HILL        N/A     37  33  85 E17G25    30.24F WCI  27          
NORWOOD        CLOUDY    42  33  70 NE7       30.28F                  
MARSHFIELD     NOT AVBL                                               
PLYMOUTH       CLOUDY    39  36  89 E8        30.28F                  
TAUNTON        CLOUDY    31  29  92 CALM      30.26F                  
NEW BEDFORD    CLOUDY    36  34  92 NE3       30.25F                  
$$

MAZALL-251300-
CAPE COD AND THE ISLANDS
  
CITY           SKY/WX    TMP DP  RH WIND       PRES   REMARKS
FALMOUTH       CLOUDY    37  37 100 E12       30.26F WCI  30          
HYANNIS        NOT AVBL                                               
CHATHAM        CLOUDY    42  40  92 E12       30.28S                  
PROVINCETOWN   CLOUDY    41  38  89 E13       30.29S                  
NANTUCKET      CLOUDY    43  40  89 E13       30.24F                  
MARTHAS VNYRD  CLOUDY    41  39  93 E14       30.24F                  
$$
 
MAZALL-251300-
CENTRAL AND WESTERN MASSACHUSETTS
  
CITY           SKY/WX    TMP DP  RH WIND       PRES   REMARKS
WORCESTER      CLOUDY    33  31  92 VRB7      30.24R WCI  27          
6HR MIN TEMP:  33; 6HR MAX TEMP:  33;                                

FITCHBURG      CLOUDY    35  30  82 VRB3      30.29F                  
ORANGE         CLOUDY    27  23  85 CALM      30.27S FOG              
SPRINGFIELD    NOT AVBL                                               
WESTFIELD      CLOUDY    36  29  75 NE5       30.25F                  
NORTH ADAMS    FAIR      35  26  69 E21G28    30.20F WCI  24          
PITTSFIELD     MOCLDY    34  26  72 VRB7      30.16S WCI  28          
$$
 
RIZALL-251300-
RHODE ISLAND
  
CITY           SKY/WX    TMP DP  RH WIND       PRES   REMARKS
PROVIDENCE     CLOUDY    37  35  92 NE9       30.25F WCI  30          
6HR MIN TEMP:  33; 6HR MAX TEMP:  38;                                

NEWPORT        CLOUDY    39  35  86 E10       30.22F                  
BLOCK ISLAND   CLOUDY    40  38  93 E15G22    30.21F WCI  32          
SMITHFIELD     CLOUDY    36  34  92 E9        30.24F WCI  29          
WESTERLY       CLOUDY    41  34  76 NE7G21    30.22F                  
$$
 
CTZALL-251300-
CONNECTICUT
  
CITY           SKY/WX    TMP DP  RH WIND       PRES   REMARKS
BRADLEY INTL   CLOUDY    35  30  82 N8        30.24F WCI  29          
6HR MIN TEMP:  31; 6HR MAX TEMP:  35;                                

HARTFORD       CLOUDY    36  31  82 N5        30.23F                  
BRIDGEPORT     CLOUDY    39  34  82 NE13      30.17F WCI  31          
DANBURY        CLOUDY    34  31  88 NE10      30.17F WCI  26          
GROTON         NOT AVBL                                               
NEW HAVEN      CLOUDY    40  35  83 NE9       30.17F                  
CHESTER        NOT AVBL                                               
MERIDEN        CLOUDY    36  31  82 N7        30.19F WCI  30          
WILLIMANTIC    CLOUDY    37  33  85 NE9       30.23F WCI  30          
OXFORD         CLOUDY    34  32  92 NE16      30.17F WCI  24          
$$

MEZ002-015-021-024-NHZ003-005-008-011-012-014-VTZ005-008-251300-
NORTHERN NEW ENGLAND
  
CITY           SKY/WX    TMP DP  RH WIND       PRES   REMARKS
PORTLAND ME    CLOUDY    36  30  79 NE8       30.37S WCI  30          
6HR MIN TEMP:  36; 6HR MAX TEMP:  37;                                

BANGOR ME      CLOUDY    29  26  89 CALM      30.40F                  
CONCORD NH     CLOUDY    35  30  82 E3        30.31S                  
MANCHESTER NH  MOCLDY    36  31  82 NE7       30.29F WCI  30          
NASHUA NH      CLOUDY    35  34  96 VRB3      30.31F                  
PORTSMOUTH NH  CLOUDY    36  32  84 NE5       30.32S                  
JAFFREY NH     CLOUDY    35  29  78 VRB5      30.26S WCI  31          
KEENE NH       FAIR      21  19  92 CALM      30.28S                  
BURLINGTON VT  MOCLDY    25  21  85 S9        30.22F WCI  15          
MT. WASHINGTON MOCLDY    28   3  34 S31G38      N/A  WCI  12          
$$

NYZ052-076-251300-
EASTERN NEW YORK
  
CITY           SKY/WX    TMP DP  RH WIND       PRES   REMARKS
ALBANY         MOCLDY    25  18  74 N3        30.22S                  
6HR MIN TEMP:  22; 6HR MAX TEMP:  26;                                

NEW YORK CITY  CLOUDY    39  35  86 E16       30.12F WCI  30          
6HR MIN TEMP:  38; 6HR MAX TEMP:  39;                                

$$
 
ANZALL-251300-
MARINE OBSERVATIONS
  
STATION/POSITION TIME  TEMP    WIND        PRES    VSBY  WAVE
                       AIR SEA DIR/SP/G                  HT/PER
                 (UTC) (F)     (DEG/KT/KT) (MB)    (MI)  (FT/S)
BOSTON BUOY      1050   42 43   70/ 14/ 16 1025.7          3/ 9
BUZZARDS BAY     1100   39      50/ 18/ 20 1024.3F
NANTUCKET SOUND  1120                      1024.9
MASS BAY-STELLWA 1104   41 41  110/ 14/ 16 1024.7F  1 7/8  5/11
ISLE OF SHOALS   1100   41      80/ 14/ 15 1026.6F
S OF BLOCK IS    1130      45                N/A           6/11
$$

......................KEY.........................
  SKY/WX - SKY CONDITION/PRESENT WEATHER
  TMP    - TEMPERATURE IN FAHRENHEIT
  DWPT   - DEWPOINT IN FAHRENHEIT
  RH     - RELATIVE HUMIDITY IN PERCENT
  WIND   - DIRECTION AND SPEED IN MPH
  PRES   - MEAN SEA LEVEL PRESSURE IN INCHES OF HG
  WCI    - WIND CHILL INDEX
  VSB    - VISIBILITY IN MILES
  HX     - HEAT INDEX
  TC     - TEMPERATURE IN CELSIUS
  VRB    - VARIABLE WIND DIRECTION
  N/A    - NOT AVAILABLE
  
      

Other recent Regional Weather Roundups

Tue Jan 28, 6:01am

Tue Jan 28, 5:10am

Tue Jan 28, 5:00am

Tue Jan 28, 4:10am

Tue Jan 28, 4:00am

Tue Jan 28, 3:10am

Tue Jan 28, 3:01am

Tue Jan 28, 2:10am

Tue Jan 28, 2:00am

Tue Jan 28, 1:10am

Tue Jan 28, 1:00am

Tue Jan 28, 12:10am

Tue Jan 28, 12:01am

Mon Jan 27, 11:10pm

Mon Jan 27, 11:00pm

Mon Jan 27, 10:10pm

Mon Jan 27, 10:00pm

Mon Jan 27, 9:10pm

Mon Jan 27, 9:00pm

Mon Jan 27, 8:10pm

Mon Jan 27, 8:01pm

Mon Jan 27, 7:10pm

Mon Jan 27, 7:00pm

Mon Jan 27, 6:10pm

Mon Jan 27, 6:00pm

Mon Jan 27, 5:10pm

Mon Jan 27, 5:00pm

Mon Jan 27, 4:10pm

Mon Jan 27, 4:00pm

Mon Jan 27, 3:10pm

Mon Jan 27, 3:00pm

Mon Jan 27, 2:10pm

Mon Jan 27, 2:00pm

Mon Jan 27, 1:10pm

Mon Jan 27, 1:00pm

Mon Jan 27, 12:10pm

Mon Jan 27, 12:00pm

Mon Jan 27, 11:10am

Mon Jan 27, 11:01am

Mon Jan 27, 10:10am

Mon Jan 27, 10:00am

Mon Jan 27, 9:10am

Mon Jan 27, 9:00am

Mon Jan 27, 8:10am

Mon Jan 27, 8:00am

Mon Jan 27, 7:10am

Mon Jan 27, 7:00am

Mon Jan 27, 6:10am

Mon Jan 27, 6:00am

Mon Jan 27, 5:10am

Mon Jan 27, 5:00am

Mon Jan 27, 4:10am

Mon Jan 27, 4:01am

Mon Jan 27, 3:10am

Mon Jan 27, 3:00am

Mon Jan 27, 2:10am

Mon Jan 27, 2:00am

Mon Jan 27, 1:10am

Mon Jan 27, 1:00am

Mon Jan 27, 12:10am

Mon Jan 27, 12:00am

Sun Jan 26, 11:10pm

Sun Jan 26, 11:00pm

Sun Jan 26, 10:10pm

Sun Jan 26, 10:00pm

Sun Jan 26, 9:10pm

Sun Jan 26, 9:01pm

Sun Jan 26, 8:10pm

Sun Jan 26, 8:00pm

Sun Jan 26, 7:10pm

Sun Jan 26, 7:00pm

Sun Jan 26, 6:10pm

Sun Jan 26, 6:01pm

Sun Jan 26, 5:10pm

Sun Jan 26, 5:01pm

Sun Jan 26, 4:10pm

Sun Jan 26, 4:00pm

Sun Jan 26, 3:10pm

Sun Jan 26, 3:01pm

Sun Jan 26, 2:10pm

Sun Jan 26, 2:01pm

Sun Jan 26, 1:10pm

Sun Jan 26, 1:00pm

Sun Jan 26, 12:10pm

Sun Jan 26, 12:00pm

Sun Jan 26, 11:10am

Sun Jan 26, 11:01am

Sun Jan 26, 10:10am

Sun Jan 26, 10:01am

Sun Jan 26, 9:10am

Sun Jan 26, 9:00am

Sun Jan 26, 8:10am

Sun Jan 26, 8:00am

Sun Jan 26, 7:10am

Sun Jan 26, 7:00am

Sun Jan 26, 6:10am

Sun Jan 26, 6:00am

Sun Jan 26, 5:10am

Sun Jan 26, 5:00am

Sun Jan 26, 4:10am

Sun Jan 26, 4:01am

Sun Jan 26, 3:10am

Sun Jan 26, 3:01am

Sun Jan 26, 2:10am

Sun Jan 26, 2:00am

Sun Jan 26, 1:10am

Sun Jan 26, 1:00am

Sun Jan 26, 12:10am

Sun Jan 26, 12:00am

Sat Jan 25, 11:10pm

Sat Jan 25, 11:00pm

Sat Jan 25, 10:10pm

Sat Jan 25, 10:01pm

Sat Jan 25, 9:10pm

Sat Jan 25, 9:01pm

Sat Jan 25, 8:10pm

Sat Jan 25, 8:01pm

Sat Jan 25, 7:10pm

Sat Jan 25, 7:01pm

Sat Jan 25, 6:10pm

Sat Jan 25, 6:01pm

Sat Jan 25, 5:10pm

Sat Jan 25, 5:01pm

Sat Jan 25, 4:10pm

Sat Jan 25, 4:00pm

Sat Jan 25, 3:10pm

Sat Jan 25, 3:01pm

Sat Jan 25, 2:10pm

Sat Jan 25, 2:00pm

Sat Jan 25, 1:10pm

Sat Jan 25, 1:00pm

Sat Jan 25, 12:10pm

Sat Jan 25, 12:00pm

Sat Jan 25, 11:10am

Sat Jan 25, 11:00am

Sat Jan 25, 10:10am

Sat Jan 25, 10:00am

Sat Jan 25, 9:10am

Sat Jan 25, 9:00am

Sat Jan 25, 8:10am

Sat Jan 25, 8:01am

Sat Jan 25, 7:10am

Sat Jan 25, 6:10am

Meta data:

ID: daca7ab9-192d-4e0b-acff-a7b3db4938e2
Link: https://api.weather.gov/products/daca7ab9-192d-4e0b-acff-a7b3db4938e2